N9OKI Weather Reports


time (UTC)temp
C
wind
direction
speed
KPH
gust
KPH
rain 1hr
cm
rain 24hr
cm
rain mn
cm
humidity
%
barometer
mb
20260504003029 17 203 1.6 6.4 0.00 0.00 0.00 40 1013.1
20260504001521 17 189 1.6 8.0 0.00 0.00 0.00 39 1013.0
20260504000020 18 202 1.6 9.7 0.00 0.00 0.00 38 1013.0
20260503234532 18 195 1.6 12.9 0.00 0.00 0.00 37 1012.8
20260503233018 18 168 6.4 14.5 0.00 0.00 0.00 37 1012.9
20260503231518 18 235 1.6 14.5 0.00 0.00 0.00 36 1012.9
20260503230020 18 238 3.2 24.1 0.00 0.00 0.00 34 1013.0
20260503224514 18 213 8.0 25.7 0.00 0.00 0.00 33 1013.5
20260503223011 18 221 4.8 14.5 0.00 0.00 0.00 33 1013.9
20260503221510 19 360 6.4 20.9 0.00 0.00 0.00 31 1014.1
20260503220010 20 189 4.8 19.3 0.00 0.00 0.00 31 1014.2
20260503214507 20 360 8.0 19.3 0.00 0.00 0.00 29 1014.5
20260503213005 20 219 4.8 17.7 0.00 0.00 0.00 30 1014.7
20260503211504 20 222 6.4 16.1 0.00 0.00 0.00 29 1015.0
20260503210005 20 157 6.4 25.7 0.00 0.00 0.00 29 1014.9
20260503204502 20 360 3.2 29.0 0.00 0.00 0.00 29 1015.0
20260503203105 19 223 6.4 17.7 0.00 0.00 0.00 29 1015.5
20260503201603 19 240 12.9 30.6 0.00 0.00 0.00 28 1015.8
20260503200059 19 185 8.0 24.1 0.00 0.00 0.00 27 1016.0
20260503194552 19 174 8.0 25.7 0.00 0.00 0.00 26 1016.4
20260503193054 19 189 8.0 24.1 0.00 0.00 0.00 27 1016.9
20260503191546 19 165 4.8 16.1 0.00 0.00 0.00 28 1017.1
20260503190043 18 213 4.8 25.7 0.00 0.00 0.00 27 1017.3
20260503184552 19 152 11.3 22.5 0.00 0.00 0.00 29 1017.7
20260503183057 18 315 4.8 22.5 0.00 0.00 0.00 26 1017.9
20260503181535 18 224 4.8 20.9 0.00 0.00 0.00 25 1018.2
20260503180040 18 257 8.0 24.1 0.00 0.00 0.00 29 1018.3
20260503174534 18 134 9.7 20.9 0.00 0.00 0.00 30 1018.6
20260503173044 17 221 3.2 22.5 0.00 0.00 0.00 35 1018.7
20260503171526 17 176 8.0 17.7 0.00 0.00 0.00 32 1019.0
20260503100107 1 313 0.0 0.0 0.00 0.00 0.00 82 1019.8
20260503081549 2 313 0.0 0.0 0.00 0.00 0.00 81 1019.5
20260503071543 3 313 0.0 0.0 0.00 0.00 0.00 80 1019.4
20260503054536 4 313 0.0 0.0 0.00 0.00 0.00 76 1019.7
20260503053035 4 313 0.0 0.0 0.00 0.00 0.00 75 1019.6
20260503051526 5 313 0.0 0.0 0.00 0.00 0.00 74 1019.6
20260503050024 5 313 0.0 1.6 0.00 0.00 0.00 72 1019.5
20260503044522 5 313 0.0 0.0 0.00 0.00 0.00 70 1019.5
20260503043018 6 313 0.0 0.0 0.00 0.00 0.00 68 1019.4
20260503041516 6 313 0.0 0.0 0.00 0.00 0.00 67 1019.5
20260503040012 6 313 0.0 0.0 0.00 0.00 0.00 67 1019.5
20260503034526 7 313 0.0 0.0 0.00 0.00 0.00 67 1019.4
20260503033009 7 313 0.0 0.0 0.00 0.00 0.00 67 1019.4
20260503031508 7 313 0.0 1.6 0.00 0.00 0.00 66 1019.3
20260503030005 8 313 0.0 0.0 0.00 0.00 0.00 65 1019.3
20260503024506 8 313 0.0 0.0 0.00 0.00 0.00 64 1019.2
20260503023004 9 313 0.0 0.0 0.00 0.00 0.00 63 1019.1
20260503021501 10 313 0.0 0.0 0.00 0.00 0.00 61 1018.9
20260503020104 10 313 0.0 0.0 0.00 0.00 0.00 59 1018.8
20260503014624 10 313 0.0 0.0 0.00 0.00 0.00 57 1018.4
20260503013059 11 313 0.0 1.6 0.00 0.00 0.00 56 1018.3
20260503011558 11 313 0.0 0.0 0.00 0.00 0.00 54 1018.1
20260503010058 12 313 0.0 0.0 0.00 0.00 0.00 51 1017.7
20260503004558 12 313 0.0 1.6 0.00 0.00 0.00 49 1017.6